Time,TemperatureF,DewpointF,PressureIn,WindDirection,WindDirectionDegrees,WindSpeedMPH,WindSpeedGustMPH,Humidity,HourlyPrecipIn,Conditions,Clouds,dailyrainin,SoftwareType,DateUTC
2013-08-08 00:02:00,63.0,-99.9,30.20,South,190,8.0,-999.0,-999,-99.99,,,-99.99,,2013-08-08 04:02:00,
2013-08-08 00:12:00,63.0,-99.9,30.20,South,190,8.0,-999.0,-999,-99.99,,,-99.99,,2013-08-08 04:12:00,
2013-08-08 00:22:00,63.0,-99.9,30.20,South,190,8.0,-999.0,-999,-99.99,,,-99.99,,2013-08-08 04:22:00,
2013-08-08 00:30:00,64.0,-99.9,30.19,SSW,207,6.0,-999.0,-999,-99.99,,,-99.99,,2013-08-08 04:30:00,
2013-08-08 00:53:00,64.0,-99.9,30.19,SSW,207,6.0,-999.0,-999,-99.99,,,-99.99,,2013-08-08 04:53:00,
2013-08-08 01:02:00,64.0,-99.9,30.19,SSW,207,6.0,-999.0,-999,-99.99,,,-99.99,,2013-08-08 05:02:00,
2013-08-08 01:12:00,64.0,-99.9,30.19,SSW,207,6.0,-999.0,-999,-99.99,,,-99.99,,2013-08-08 05:12:00,
2013-08-08 01:22:00,64.0,-99.9,30.19,SSW,207,6.0,-999.0,-999,-99.99,,,-99.99,,2013-08-08 05:22:00,
2013-08-08 01:30:00,64.0,-99.9,30.18,SSW,203,5.0,-999.0,-999,-99.99,,,-99.99,,2013-08-08 05:30:00,
2013-08-08 01:52:00,64.0,-99.9,30.18,SSW,203,5.0,-999.0,-999,-99.99,,,-99.99,,2013-08-08 05:52:00,
2013-08-08 02:01:00,64.0,-99.9,30.18,SSW,203,5.0,-999.0,-999,-99.99,,,-99.99,,2013-08-08 06:01:00,
2013-08-08 02:12:00,64.0,-99.9,30.18,SSW,203,5.0,-999.0,-999,-99.99,,,-99.99,,2013-08-08 06:12:00,
2013-08-08 02:22:00,64.0,-99.9,30.18,SSW,203,5.0,-999.0,-999,-99.99,,,-99.99,,2013-08-08 06:22:00,
2013-08-08 02:30:00,65.0,-99.9,30.17,SSW,212,6.0,-999.0,-999,-99.99,,,-99.99,,2013-08-08 06:30:00,
2013-08-08 02:52:00,65.0,-99.9,30.17,SSW,212,6.0,-999.0,-999,-99.99,,,-99.99,,2013-08-08 06:52:00,
2013-08-08 03:02:00,65.0,-99.9,30.17,SSW,212,6.0,-999.0,-999,-99.99,,,-99.99,,2013-08-08 07:02:00,
2013-08-08 03:12:00,65.0,-99.9,30.17,SSW,212,6.0,-999.0,-999,-99.99,,,-99.99,,2013-08-08 07:12:00,
2013-08-08 03:22:00,65.0,-99.9,30.17,SSW,212,6.0,-999.0,-999,-99.99,,,-99.99,,2013-08-08 07:22:00,
2013-08-08 03:30:00,65.0,-99.9,30.15,SSW,195,8.0,-999.0,-999,-99.99,,,-99.99,,2013-08-08 07:30:00,
2013-08-08 03:53:00,65.0,-99.9,30.15,SSW,195,8.0,-999.0,-999,-99.99,,,-99.99,,2013-08-08 07:53:00,
2013-08-08 04:02:00,65.0,-99.9,30.15,SSW,195,8.0,-999.0,-999,-99.99,,,-99.99,,2013-08-08 08:02:00,
2013-08-08 04:11:00,65.0,-99.9,30.15,SSW,195,8.0,-999.0,-999,-99.99,,,-99.99,,2013-08-08 08:11:00,
2013-08-08 04:22:00,65.0,-99.9,30.15,SSW,195,8.0,-999.0,-999,-99.99,,,-99.99,,2013-08-08 08:22:00,
2013-08-08 04:30:00,67.0,-99.9,30.14,SSW,206,4.0,-999.0,-999,-99.99,,,-99.99,,2013-08-08 08:30:00,
2013-08-08 04:53:00,67.0,-99.9,30.14,SSW,206,4.0,-999.0,-999,-99.99,,,-99.99,,2013-08-08 08:53:00,
2013-08-08 05:02:00,67.0,-99.9,30.14,SSW,206,4.0,-999.0,-999,-99.99,,,-99.99,,2013-08-08 09:02:00,
2013-08-08 05:12:00,67.0,-99.9,30.14,SSW,206,4.0,-999.0,-999,-99.99,,,-99.99,,2013-08-08 09:12:00,
2013-08-08 05:22:00,67.0,-99.9,30.14,SSW,206,4.0,-999.0,-999,-99.99,,,-99.99,,2013-08-08 09:22:00,
2013-08-08 05:30:00,68.0,-99.9,30.14,WSW,242,2.0,-999.0,-999,-99.99,,,-99.99,,2013-08-08 09:30:00,
2013-08-08 05:53:00,68.0,-99.9,30.14,WSW,242,2.0,-999.0,-999,-99.99,,,-99.99,,2013-08-08 09:53:00,
2013-08-08 06:01:00,68.0,-99.9,30.14,WSW,242,2.0,-999.0,-999,-99.99,,,-99.99,,2013-08-08 10:01:00,
2013-08-08 06:12:00,68.0,-99.9,30.14,WSW,242,2.0,-999.0,-999,-99.99,,,-99.99,,2013-08-08 10:12:00,
2013-08-08 06:22:00,68.0,-99.9,30.14,WSW,242,2.0,-999.0,-999,-99.99,,,-99.99,,2013-08-08 10:22:00,
2013-08-08 06:30:00,68.0,-99.9,30.14,SSW,195,6.0,-999.0,-999,-99.99,,,-99.99,,2013-08-08 10:30:00,
2013-08-08 06:52:00,68.0,-99.9,30.14,SSW,195,6.0,-999.0,-999,-99.99,,,-99.99,,2013-08-08 10:52:00,
2013-08-08 07:02:00,68.0,-99.9,30.14,SSW,195,6.0,-999.0,-999,-99.99,,,-99.99,,2013-08-08 11:02:00,
2013-08-08 07:11:00,68.0,-99.9,30.14,SSW,195,6.0,-999.0,-999,-99.99,,,-99.99,,2013-08-08 11:11:00,
2013-08-08 07:22:00,68.0,-99.9,30.14,SSW,195,6.0,-999.0,-999,-99.99,,,-99.99,,2013-08-08 11:22:00,
2013-08-08 07:30:00,70.0,-99.9,30.15,SSW,213,4.0,-999.0,-999,-99.99,,,-99.99,,2013-08-08 11:30:00,
2013-08-08 08:02:00,70.0,-99.9,30.15,SSW,213,4.0,-999.0,-999,-99.99,,,-99.99,,2013-08-08 12:02:00,
2013-08-08 08:11:00,70.0,-99.9,30.15,SSW,213,4.0,-999.0,-999,-99.99,,,-99.99,,2013-08-08 12:11:00,
2013-08-08 08:22:00,70.0,-99.9,30.15,SSW,213,4.0,-999.0,-999,-99.99,,,-99.99,,2013-08-08 12:22:00,
2013-08-08 08:31:00,69.0,-99.9,30.15,SSW,206,8.0,-999.0,-999,-99.99,,,-99.99,,2013-08-08 12:31:00,
2013-08-08 08:53:00,69.0,-99.9,30.15,SSW,206,8.0,-999.0,-999,-99.99,,,-99.99,,2013-08-08 12:53:00,
2013-08-08 09:02:00,69.0,-99.9,30.15,SSW,206,8.0,-999.0,-999,-99.99,,,-99.99,,2013-08-08 13:02:00,
2013-08-08 09:12:00,69.0,-99.9,30.15,SSW,206,8.0,-999.0,-999,-99.99,,,-99.99,,2013-08-08 13:12:00,
2013-08-08 09:22:00,69.0,-99.9,30.15,SSW,206,8.0,-999.0,-999,-99.99,,,-99.99,,2013-08-08 13:22:00,
2013-08-08 09:30:00,72.0,-99.9,30.14,SW,219,9.0,-999.0,-999,-99.99,,,-99.99,,2013-08-08 13:30:00,
2013-08-08 09:53:00,72.0,-99.9,30.14,SW,219,9.0,-999.0,-999,-99.99,,,-99.99,,2013-08-08 13:53:00,
2013-08-08 10:02:00,72.0,-99.9,30.14,SW,219,9.0,-999.0,-999,-99.99,,,-99.99,,2013-08-08 14:02:00,
2013-08-08 10:11:00,72.0,-99.9,30.14,SW,219,9.0,-999.0,-999,-99.99,,,-99.99,,2013-08-08 14:11:00,
2013-08-08 10:22:00,72.0,-99.9,30.14,SW,219,9.0,-999.0,-999,-99.99,,,-99.99,,2013-08-08 14:22:00,
2013-08-08 10:30:00,77.0,-99.9,30.15,SSW,212,13.0,-999.0,-999,-99.99,,,-99.99,,2013-08-08 14:30:00,
2013-08-08 10:53:00,77.0,-99.9,30.15,SSW,212,13.0,-999.0,-999,-99.99,,,-99.99,,2013-08-08 14:53:00,
2013-08-08 11:02:00,77.0,-99.9,30.15,SSW,212,13.0,-999.0,-999,-99.99,,,-99.99,,2013-08-08 15:02:00,
2013-08-08 11:12:00,77.0,-99.9,30.15,SSW,212,13.0,-999.0,-999,-99.99,,,-99.99,,2013-08-08 15:12:00,
2013-08-08 11:22:00,77.0,-99.9,30.15,SSW,212,13.0,-999.0,-999,-99.99,,,-99.99,,2013-08-08 15:22:00,
2013-08-08 11:30:00,76.0,-99.9,30.14,West,279,15.0,-999.0,-999,-99.99,,,-99.99,,2013-08-08 15:30:00,
2013-08-08 11:53:00,76.0,-99.9,30.14,West,279,15.0,-999.0,-999,-99.99,,,-99.99,,2013-08-08 15:53:00,
2013-08-08 12:02:00,76.0,-99.9,30.14,West,279,15.0,-999.0,-999,-99.99,,,-99.99,,2013-08-08 16:02:00,
2013-08-08 12:11:00,76.0,-99.9,30.14,West,279,15.0,-999.0,-999,-99.99,,,-99.99,,2013-08-08 16:11:00,
2013-08-08 12:22:00,76.0,-99.9,30.14,West,279,15.0,-999.0,-999,-99.99,,,-99.99,,2013-08-08 16:22:00,
2013-08-08 12:30:00,78.0,-99.9,30.13,West,260,22.0,-999.0,-999,-99.99,,,-99.99,,2013-08-08 16:30:00,
2013-08-08 13:02:00,78.0,-99.9,30.13,West,260,22.0,-999.0,-999,-99.99,,,-99.99,,2013-08-08 17:02:00,
2013-08-08 13:11:00,78.0,-99.9,30.13,West,260,22.0,-999.0,-999,-99.99,,,-99.99,,2013-08-08 17:11:00,
2013-08-08 13:22:00,78.0,-99.9,30.13,West,260,22.0,-999.0,-999,-99.99,,,-99.99,,2013-08-08 17:22:00,
2013-08-08 13:30:00,78.0,-99.9,30.13,WSW,254,21.0,-999.0,-999,-99.99,,,-99.99,,2013-08-08 17:30:00,
2013-08-08 13:52:00,78.0,-99.9,30.13,WSW,254,21.0,-999.0,-999,-99.99,,,-99.99,,2013-08-08 17:52:00,
2013-08-08 14:02:00,78.0,-99.9,30.13,WSW,254,21.0,-999.0,-999,-99.99,,,-99.99,,2013-08-08 18:02:00,
2013-08-08 14:11:00,78.0,-99.9,30.13,WSW,254,21.0,-999.0,-999,-99.99,,,-99.99,,2013-08-08 18:11:00,
2013-08-08 14:22:00,78.0,-99.9,30.13,WSW,254,21.0,-999.0,-999,-99.99,,,-99.99,,2013-08-08 18:22:00,
2013-08-08 14:31:00,79.0,-99.9,30.13,WSW,257,16.0,-999.0,-999,-99.99,,,-99.99,,2013-08-08 18:31:00,
2013-08-08 15:02:00,79.0,-99.9,30.13,WSW,257,16.0,-999.0,-999,-99.99,,,-99.99,,2013-08-08 19:02:00,
2013-08-08 15:12:00,79.0,-99.9,30.13,WSW,257,16.0,-999.0,-999,-99.99,,,-99.99,,2013-08-08 19:12:00,
2013-08-08 15:22:00,79.0,-99.9,30.13,WSW,257,16.0,-999.0,-999,-99.99,,,-99.99,,2013-08-08 19:22:00,
2013-08-08 15:30:00,77.0,-99.9,30.13,WSW,244,19.0,-999.0,-999,-99.99,,,-99.99,,2013-08-08 19:30:00,
2013-08-08 15:59:00,77.0,-99.9,30.13,WSW,244,19.0,-999.0,-999,-99.99,,,-99.99,,2013-08-08 19:59:00,
2013-08-08 16:11:00,77.0,-99.9,30.13,WSW,244,19.0,-999.0,-999,-99.99,,,-99.99,,2013-08-08 20:11:00,
2013-08-08 16:22:00,77.0,-99.9,30.13,WSW,244,19.0,-999.0,-999,-99.99,,,-99.99,,2013-08-08 20:22:00,
2013-08-08 16:30:00,78.0,-99.9,30.12,West,259,16.0,-999.0,-999,-99.99,,,-99.99,,2013-08-08 20:30:00,
2013-08-08 16:53:00,78.0,-99.9,30.12,West,259,16.0,-999.0,-999,-99.99,,,-99.99,,2013-08-08 20:53:00,
2013-08-08 17:01:00,78.0,-99.9,30.12,West,259,16.0,-999.0,-999,-99.99,,,-99.99,,2013-08-08 21:01:00,
2013-08-08 17:15:00,78.0,-99.9,30.12,West,259,16.0,-999.0,-999,-99.99,,,-99.99,,2013-08-08 21:15:00,
2013-08-08 17:27:00,78.0,-99.9,30.12,West,259,16.0,-999.0,-999,-99.99,,,-99.99,,2013-08-08 21:27:00,
2013-08-08 17:30:00,77.0,-99.9,30.10,WSW,243,15.0,-999.0,-999,-99.99,,,-99.99,,2013-08-08 21:30:00,
2013-08-08 17:57:00,77.0,-99.9,30.10,WSW,243,15.0,-999.0,-999,-99.99,,,-99.99,,2013-08-08 21:57:00,
2013-08-08 18:07:00,77.0,-99.9,30.10,WSW,243,15.0,-999.0,-999,-99.99,,,-99.99,,2013-08-08 22:07:00,
2013-08-08 18:17:00,77.0,-99.9,30.10,WSW,243,15.0,-999.0,-999,-99.99,,,-99.99,,2013-08-08 22:17:00,
2013-08-08 18:26:00,77.0,-99.9,30.10,WSW,243,15.0,-999.0,-999,-99.99,,,-99.99,,2013-08-08 22:26:00,
2013-08-08 18:30:00,75.0,-99.9,30.10,SW,216,6.0,-999.0,-999,-99.99,,,-99.99,,2013-08-08 22:30:00,
2013-08-08 19:07:00,75.0,-99.9,30.10,SW,216,6.0,-999.0,-999,-99.99,,,-99.99,,2013-08-08 23:07:00,
2013-08-08 19:15:00,75.0,-99.9,30.10,SW,216,6.0,-999.0,-999,-99.99,,,-99.99,,2013-08-08 23:15:00,
2013-08-08 19:26:00,75.0,-99.9,30.10,SW,216,6.0,-999.0,-999,-99.99,,,-99.99,,2013-08-08 23:26:00,
2013-08-08 19:30:00,74.0,-99.9,30.10,SSW,204,10.0,-999.0,-999,-99.99,,,-99.99,,2013-08-08 23:30:00,
2013-08-08 19:58:00,74.0,-99.9,30.10,SSW,204,10.0,-999.0,-999,-99.99,,,-99.99,,2013-08-08 23:58:00,
2013-08-08 20:17:00,74.0,-99.9,30.10,SSW,204,10.0,-999.0,-999,-99.99,,,-99.99,,2013-08-09 00:17:00,
2013-08-08 20:46:00,74.0,-99.9,30.12,West,265,5.0,-999.0,-999,-99.99,,,-99.99,,2013-08-09 00:46:00,
2013-08-08 20:58:00,74.0,-99.9,30.11,SW,221,5.0,-999.0,-999,-99.99,,,-99.99,,2013-08-09 00:58:00,
2013-08-08 21:04:00,74.0,-99.9,30.12,West,265,5.0,-999.0,-999,-99.99,,,-99.99,,2013-08-09 01:04:00,
2013-08-08 21:16:00,74.0,-99.9,30.12,West,265,5.0,-999.0,-999,-99.99,,,-99.99,,2013-08-09 01:16:00,
2013-08-08 21:27:00,74.0,-99.9,30.12,West,265,5.0,-999.0,-999,-99.99,,,-99.99,,2013-08-09 01:27:00,
2013-08-08 21:30:00,74.0,-99.9,30.14,SW,227,9.0,-999.0,-999,-99.99,,,-99.99,,2013-08-09 01:30:00,
2013-08-08 21:38:00,74.0,-99.9,30.12,West,265,5.0,-999.0,-999,-99.99,,,-99.99,,2013-08-09 01:38:00,
2013-08-08 22:00:00,74.0,-99.9,30.14,SW,227,9.0,-999.0,-999,-99.99,,,-99.99,,2013-08-09 02:00:00,
2013-08-08 22:06:00,74.0,-99.9,30.14,SW,227,9.0,-999.0,-999,-99.99,,,-99.99,,2013-08-09 02:06:00,
2013-08-08 22:15:00,74.0,-99.9,30.14,SW,227,9.0,-999.0,-999,-99.99,,,-99.99,,2013-08-09 02:15:00,
2013-08-08 22:26:00,74.0,-99.9,30.14,SW,227,9.0,-999.0,-999,-99.99,,,-99.99,,2013-08-09 02:26:00,
2013-08-08 22:30:00,74.0,-99.9,30.12,SW,235,5.0,-999.0,-999,-99.99,,,-99.99,,2013-08-09 02:30:00,
2013-08-08 22:57:00,74.0,-99.9,30.12,SW,235,5.0,-999.0,-999,-99.99,,,-99.99,,2013-08-09 02:57:00,
2013-08-08 23:08:00,74.0,-99.9,30.12,SW,235,5.0,-999.0,-999,-99.99,,,-99.99,,2013-08-09 03:08:00,
2013-08-08 23:26:00,74.0,-99.9,30.12,SW,235,5.0,-999.0,-999,-99.99,,,-99.99,,2013-08-09 03:26:00,
2013-08-08 23:30:00,74.0,-99.9,30.12,SW,226,9.0,-999.0,-999,-99.99,,,-99.99,,2013-08-09 03:30:00,